Regional Weather Roundup
Issued by NWS

Home | Current Version | Previous Version | Graphics & Text | Print | Product List | Glossary On
Versions: 1 2 3 4 5 6 7 8 9 10 11 12 13 14 15 16 17 18 19 20 21 22 23 24 25 26 27 28 29 30 31 32 33 34 35 36 37 38 39 40 41 42 43 44 45 46 47 48 49 50
000
ASUS43 KMKX 010711
RWRWI

WISCONSIN REGIONAL WEATHER ROUNDUP
NATIONAL WEATHER SERVICE MILWAUKEE/SULLIVAN WI
200 AM CDT WED OCT 01 2014

NOTE: "FAIR" INDICATES FEW OR NO CLOUDS BELOW 12,000 FEET WITH NO
SIGNIFICANT WEATHER AND/OR OBSTRUCTIONS TO VISIBILITY.

WIZ001-002-006>008-014>016-023>028-010800-
NORTHWEST WISCONSIN

CITY           SKY/WX    TMP DP  RH WIND       PRES   REMARKS
SUPERIOR ARPT  CLOUDY    48  47  94 E3        29.93R
ASHLAND        MOCLDY    41  39  93 E3        29.94S
HAYWARD        CLOUDY    47  43  86 S10       29.95R
SIREN          CLOUDY    49  42  79 SE12      29.91F
CUMBERLAND     CLOUDY    45  41  87 SE10      29.94S
RICE LAKE      CLOUDY    46  42  85 SE9       29.96F
CHETEK         CLOUDY    46  43  90 E12       29.96S
LADYSMITH      CLOUDY    46  43  87 S10       30.00R
EAU CLAIRE     CLOUDY    47  42  83 SE9       29.97S
MENOMONIE      CLOUDY    47  43  85 E7        29.96R
NEW RICHMOND   CLOUDY    47  42  81 SE10      29.92S
OSCEOLA        CLOUDY    49  44  83 SE9       29.93F
$$

WIZ003>005-009-010-017-018-010800-
NORTH CENTRAL WISCONSIN

CITY           SKY/WX    TMP DP  RH WIND       PRES   REMARKS
MANITOWISH WTR CLOUDY    43  43 100 SE8       29.97F
ARBOR VITAE    CLOUDY    44  42  92 SE12      29.98F
WOODRUFF       CLOUDY    44  42  92 SE12      29.98F
RHINELANDER    CLOUDY    43  42  97 SE12      30.01F
EAGLE RIVER    CLOUDY    44  43  99 SE8       30.00F
LAND O LAKES   CLOUDY    45  44  95 SE9       30.01F
PHILLIPS       CLOUDY    44  42  92 SE10      29.96F
TOMAHAWK       CLOUDY    43  41  93 SE5       30.00F
MEDFORD        CLOUDY    43  42  96 SE9G16    29.98S FOG
MERRILL        CLOUDY    44  43  96 SE12      30.00F
$$

WIZ029-030-035-036-043>047-010800-
CENTRAL WISCONSIN

CITY           SKY/WX    TMP DP  RH WIND       PRES   REMARKS
WAUSAU         CLOUDY    44  42  93 SE12      30.00F FOG
MOSINEE        CLOUDY    43  43 100 SE7       30.02F FOG
MARSHFIELD     CLOUDY    46  43  89 SE13      30.00S
STEVENS POINT  CLOUDY    44  43  96 SE8       30.02F FOG
WAUPACA        CLOUDY    49  47  92 CALM      30.03F
WAUTOMA        NOT AVBL
WISC RAPIDS    CLOUDY    47  43  86 SE10      30.02F
CAMP DOUGLAS   CLOUDY    46  46 100 SE7       30.00S
$$

WIZ011>013-019>022-031-037>040-048>050-010800-
NORTHEAST WISCONSIN

CITY           SKY/WX    TMP DP  RH WIND       PRES   REMARKS
ANTIGO         CLOUDY    42  42 100 S12       30.03F FOG
SHAWANO        CLOUDY    48  46  90 CALM      30.05F FOG
OCONTO         CLOUDY    47  47 100 CALM      30.04F
STURGEON BAY   NOT AVBL
GREEN BAY      CLOUDY    48  47  96 CALM      30.04F FOG
MANITOWOC      NOT AVBL
APPLETON       CLOUDY    45  45 100 N3        30.04S FOG
CLINTONVILLE   CLOUDY    45  45 100 CALM      30.03F FOG
OSHKOSH        CLOUDY    48  47  96 NE3       30.02F FOG
$$

WIZ032>034-041-042-053>061-010800-
SOUTHWEST WISCONSIN

CITY           SKY/WX    TMP DP  RH WIND       PRES   REMARKS
LA CROSSE      MOCLDY    50  43  77 SE7       29.97R
SPARTA         MOCLDY    46  42  86 SE5       30.00R
VIROQUA        CLOUDY    45  45 100 SE8       29.97S
BOSCOBEL       CLOUDY    47  44  90 NE3       30.00R
PRAIRIE DU CHI PTCLDY    48  43  81 SE6       29.97S
PLATTEVILLE    MOCLDY    47  45  93 SE7       29.99S
$$

WIZ056-057-062-063-064-067-068-010800-
SOUTH CENTRAL WISCONSIN

CITY           SKY/WX    TMP DP  RH WIND       PRES   REMARKS
REEDSBURG      CLOUDY    46  44  92 E5        30.00S
BARABOO/DELLS  CLOUDY    47  44  88 E9        30.00S
LONE ROCK      CLOUDY    50  43  77 E7        29.99S
MINERAL POINT  CLOUDY    48  45  87 E12       29.97F
MADISON        CLOUDY    49  45  86 MISG      30.01S
MIDDLETON      CLOUDY    52  47  82 SE8       30.01S
WATERTOWN      CLOUDY    47  47 100 E5        30.01F
MONROE         CLOUDY    50  46  87 E9        30.00R
JANESVILLE     CLOUDY    52  46  82 CALM      30.01R
$$

WIZ051-052-058>065-066-070>072-010800-
SOUTHEAST WISCONSIN

CITY           SKY/WX    TMP DP  RH WIND       PRES   REMARKS
MILWAUKEE      CLOUDY    54  49  83 E6        30.01F
WAUKESHA       CLOUDY    46  46 100 NE3       30.02F
MILWAUKEE/TIMM CLOUDY    50  46  87 CALM      30.02F
RACINE         CLOUDY    56  47  71 SE9       30.03S
BURLINGTON     CLOUDY    48  48  99 CALM      30.00F
KENOSHA        CLOUDY    55  49  80 SE7       30.01F
FOND DU LAC    CLOUDY    48  46  93 E7        30.02F
SHEBOYGAN      NOT AVBL
WEST BEND      CLOUDY    48  45  87 E5        30.02F
JUNEAU         CLOUDY    47  46  95 CALM      30.03F
$$

LSZ147-162-010800-
LAKE SUPERIOR

STATION/POSITION TIME  TEMP    WIND        PRES    WAVE
                       AIR SEA DIR/SP/G            HT/PER
                 (UTC) (F)     (DEG/KT/KT) (MB)    (FT/S)
W MID LAKE BUOY  0650   49 50  130/ 14/ 16 1015.1F   2/ 4
DEVILS ISLAND    0700   50     100/ 10/ 12 1014.1F
SAXON HARBOR     0600   41      CALM  /  4 1013.9
$$

LMZ867-665-643>646-010800-
LAKE MICHIGAN

STATION/POSITION TIME  TEMP    WIND        PRES    WAVE
                       AIR SEA DIR/SP/G            HT/PER
                 (UTC) (F)     (DEG/KT/KT) (MB)    (FT/S)
CHAMBERS ISLAND  0600   52     100/  2/  4 1017.6F
S GREEN BAY BUOY 0600   51                 1018.5F
N MID LAKE BUOY  0650   54 58  160/ 10/ 12 1018.1R   1/ 4
NORTHPORT PIER   0600   54     150/  6/ 10 1017.6S
SISTER BAY       0557             CALM       N/A
KEWAUNEE LAKESHO 0600   53     140/  7/ 11 1016.5F
SHEBOYGAN LAKESH 0700   54 54  120/ 12/ 13 1017.3F
PORT WASHINGTON  0640   55     120/  5/  7 1017.3F
ATWATER BUOY     0700   56     100/ 10/ 12 1017.3F
MILWAUKEE LAKESH 0600   55     110/ 11/ 14   N/A
S MID LAKE BUOY  0650   57 62  130/ 10/ 14 1017.0F   2/ 6
KENOSHA   LAKESH 0700   57     130/ 10/ 16 1015.9F
$$

TC  - TEMPERATURE IN CELSIUS
VSB - VISIBILITY IN STATUTE MILES
WCI - WIND CHILL INDEX
HX  - HEAT INDEX




USA.gov is the U.S. government's official web portal to all federal, state and local government web resources and services.